GW6846 Weather Reports


Display with metric or nautical units.
time (UTC)temp
F
wind
direction
speed
MPH
gust
MPH
rain 1hr
in
rain 24hr
in
rain mn
in
humidity
%
barometer
mb
20260502161632 84 115 2.0 10.0 0.00 0.00 0.00 25 1014.8
20260502161129 84 78 2.0 6.0 0.00 0.00 0.00 26 1014.8
20260502160627 83 163 2.0 4.0 0.00 0.00 0.00 26 1014.7
20260502160125 83 112 4.0 10.0 0.00 0.00 0.00 25 1014.7
20260502152039 79 109 1.0 2.0 0.00 0.00 0.00 24 1014.4
20260502151536 78 107 1.0 2.0 0.00 0.00 0.00 25 1014.4
20260502151034 78 146 2.0 3.0 0.00 0.00 0.00 24 1014.2
20260502150531 78 138 0.0 1.0 0.00 0.00 0.00 25 1014.3
20260502130416 71 82 0.0 1.0 0.00 0.00 0.00 28 1013.0
20260502123358 70 124 0.0 0.0 0.00 0.00 0.00 29 1012.4
20260502122855 71 125 1.0 1.0 0.00 0.00 0.00 28 1012.4
20260502122351 70 41 0.0 2.0 0.00 0.00 0.00 26 1012.4
20260502121850 71 47 0.0 0.0 0.00 0.00 0.00 28 1012.3
20260502121347 69 47 1.0 2.0 0.00 0.00 0.00 28 1012.2
20260502120844 67 47 0.0 0.0 0.00 0.00 0.00 32 1012.3
20260502120340 66 47 0.0 1.0 0.00 0.00 0.00 32 1012.2
20260502115838 66 46 0.0 0.0 0.00 0.00 0.00 32 1012.3
20260502115335 66 46 0.0 1.0 0.00 0.00 0.00 33 1012.2
20260502114831 66 46 0.0 0.0 0.00 0.00 0.00 33 1012.2
20260502114328 67 46 0.0 0.0 0.00 0.00 0.00 32 1012.2
20260502113825 67 47 0.0 0.0 0.00 0.00 0.00 32 1012.4
20260502113323 66 46 0.0 0.0 0.00 0.00 0.00 33 1012.2
20260502112821 66 46 0.0 0.0 0.00 0.00 0.00 33 1012.3
20260502112318 67 46 0.0 0.0 0.00 0.00 0.00 33 1012.3
20260502111815 67 46 0.0 0.0 0.00 0.00 0.00 33 1012.2
20260502111313 67 47 0.0 0.0 0.00 0.00 0.00 33 1012.1
20260502110810 68 47 0.0 0.0 0.00 0.00 0.00 33 1012.2
20260502110308 68 47 0.0 0.0 0.00 0.00 0.00 33 1012.1
20260502105806 69 47 0.0 0.0 0.00 0.00 0.00 32 1011.9
20260502105302 68 47 0.0 0.0 0.00 0.00 0.00 32 1012.1
20260502104800 68 47 0.0 0.0 0.00 0.00 0.00 31 1012.2
20260502104257 69 47 0.0 0.0 0.00 0.00 0.00 31 1012.1
20260502103754 68 46 0.0 1.0 0.00 0.00 0.00 30 1012.0
20260502103251 68 47 0.0 0.0 0.00 0.00 0.00 31 1012.2
20260502102748 68 47 0.0 0.0 0.00 0.00 0.00 31 1011.8
20260502102245 68 47 0.0 0.0 0.00 0.00 0.00 31 1011.9
20260502101743 68 46 0.0 0.0 0.00 0.00 0.00 31 1011.8
20260502101241 68 46 0.0 0.0 0.00 0.00 0.00 32 1011.8
20260502100739 68 46 0.0 0.0 0.00 0.00 0.00 31 1011.9
20260502100237 69 46 0.0 0.0 0.00 0.00 0.00 33 1011.5
20260502091211 71 51 0.0 0.0 0.00 0.00 0.00 26 1011.5
20260502090709 72 51 0.0 0.0 0.00 0.00 0.00 27 1011.4
20260502090205 72 51 0.0 0.0 0.00 0.00 0.00 25 1011.5
20260502071107 75 238 0.0 0.0 0.00 0.00 0.00 21 1010.7
20260502070605 74 238 1.0 2.0 0.00 0.00 0.00 22 1010.5
20260502065600 74 237 0.0 1.0 0.00 0.00 0.00 21 1010.6
20260502065058 75 237 0.0 0.0 0.00 0.00 0.00 22 1010.8
20260502064556 75 237 0.0 0.0 0.00 0.00 0.00 21 1010.7
20260502064053 75 237 0.0 0.0 0.00 0.00 0.00 21 1010.7
20260502063551 76 237 0.0 0.0 0.00 0.00 0.00 21 1010.5
20260502063048 76 237 1.0 1.0 0.00 0.00 0.00 21 1010.4
20260502062545 76 237 1.0 1.0 0.00 0.00 0.00 21 1010.6
20260502062043 76 237 0.0 2.0 0.00 0.00 0.00 21 1010.5
20260502061541 76 241 1.0 2.0 0.00 0.00 0.00 20 1010.5
20260502061038 77 235 0.0 1.0 0.00 0.00 0.00 20 1010.5
20260502060533 77 233 1.0 1.0 0.00 0.00 0.00 20 1010.3
20260502060030 77 236 1.0 2.0 0.00 0.00 0.00 20 1010.4
20260502055527 77 219 2.0 2.0 0.00 0.00 0.00 20 1010.5
20260502055026 77 218 1.0 2.0 0.00 0.00 0.00 20 1010.2
20260502054525 78 210 0.0 1.0 0.00 0.00 0.00 20 1010.4
20260502054021 78 210 1.0 1.0 0.00 0.00 0.00 21 1010.3
20260502053518 78 234 0.0 1.0 0.00 0.00 0.00 20 1010.3
20260502053016 78 209 1.0 1.0 0.00 0.00 0.00 20 1010.3
20260502052514 78 209 0.0 1.0 0.00 0.00 0.00 20 1010.2
20260502052012 78 209 0.0 1.0 0.00 0.00 0.00 19 1010.3
20260502051510 78 209 0.0 1.0 0.00 0.00 0.00 20 1010.2
20260502051007 78 209 0.0 1.0 0.00 0.00 0.00 19 1010.2
20260502050503 78 209 0.0 0.0 0.00 0.00 0.00 19 1010.2
20260502050000 78 209 0.0 0.0 0.00 0.00 0.00 19 1010.1
20260502045457 78 209 0.0 0.0 0.00 0.00 0.00 19 1010.1
20260502044954 78 209 0.0 0.0 0.00 0.00 0.00 19 1009.9
20260502044449 78 209 0.0 0.0 0.00 0.00 0.00 19 1010.0
20260502043947 79 209 0.0 0.0 0.00 0.00 0.00 19 1009.9
20260502043445 79 209 0.0 1.0 0.00 0.00 0.00 18 1009.9
20260502042944 80 209 0.0 1.0 0.00 0.00 0.00 18 1009.7
20260502042441 80 209 1.0 1.0 0.00 0.00 0.00 18 1009.9
20260502041938 81 209 0.0 1.0 0.00 0.00 0.00 18 1009.8
20260502041436 80 209 1.0 1.0 0.00 0.00 0.00 18 1009.8
20260502040933 80 209 1.0 1.0 0.00 0.00 0.00 18 1009.7
20260502040429 80 209 0.0 0.0 0.00 0.00 0.00 18 1009.6
20260502035926 80 209 0.0 0.0 0.00 0.00 0.00 18 1009.5
20260502035422 81 209 0.0 0.0 0.00 0.00 0.00 17 1009.5
20260502034920 81 209 0.0 0.0 0.00 0.00 0.00 18 1009.5
20260502034419 82 209 0.0 1.0 0.00 0.00 0.00 18 1009.4
20260502033917 82 209 0.0 0.0 0.00 0.00 0.00 17 1009.4
20260502033414 82 209 0.0 1.0 0.00 0.00 0.00 19 1009.1
20260502032910 82 209 0.0 1.0 0.00 0.00 0.00 17 1009.4
20260502032407 82 209 0.0 0.0 0.00 0.00 0.00 17 1009.1
20260502031904 83 209 0.0 0.0 0.00 0.00 0.00 17 1009.3
20260502031402 83 209 0.0 1.0 0.00 0.00 0.00 17 1008.9
20260502030900 84 209 0.0 0.0 0.00 0.00 0.00 17 1009.1
20260502030358 84 209 1.0 1.0 0.00 0.00 0.00 16 1009.2
20260502025855 84 209 0.0 1.0 0.00 0.00 0.00 16 1009.0
20260502025353 85 209 1.0 1.0 0.00 0.00 0.00 16 1009.0
20260502024850 85 209 1.0 1.0 0.00 0.00 0.00 16 1008.8
20260502024348 85 195 1.0 2.0 0.00 0.00 0.00 16 1008.9
20260502023846 86 180 0.0 1.0 0.00 0.00 0.00 16 1008.7
20260502023343 86 192 0.0 2.0 0.00 0.00 0.00 16 1008.8
20260502022841 86 225 1.0 2.0 0.00 0.00 0.00 16 1008.7
20260502022337 86 196 2.0 3.0 0.00 0.00 0.00 15 1008.5
20260502021834 86 198 2.0 2.0 0.00 0.00 0.00 16 1008.6
20260502021331 87 223 1.0 2.0 0.00 0.00 0.00 15 1008.4
20260502020829 87 219 2.0 3.0 0.00 0.00 0.00 15 1008.7
20260502020326 87 212 2.0 4.0 0.00 0.00 0.00 16 1008.6
20260502015823 87 235 2.0 3.0 0.00 0.00 0.00 15 1008.5
20260502015320 88 213 0.0 2.0 0.00 0.00 0.00 15 1008.5
20260502014817 88 233 2.0 2.0 0.00 0.00 0.00 15 1008.4
20260502014314 88 222 2.0 3.0 0.00 0.00 0.00 15 1008.4
20260502013810 88 191 1.0 2.0 0.00 0.00 0.00 15 1008.2
20260502013306 88 190 1.0 2.0 0.00 0.00 0.00 15 1008.3
20260502012803 89 258 3.0 6.0 0.00 0.00 0.00 15 1008.5
20260502012300 89 231 2.0 2.0 0.00 0.00 0.00 15 1008.4
20260502011758 89 195 2.0 4.0 0.00 0.00 0.00 16 1008.5
20260502011253 89 178 2.0 3.0 0.00 0.00 0.00 15 1008.5
20260502010751 90 229 2.0 3.0 0.00 0.00 0.00 15 1008.4
20260502010247 91 223 4.0 6.0 0.00 0.00 0.00 15 1008.5
20260502005744 91 194 1.0 3.0 0.00 0.00 0.00 14 1008.6
20260502005242 91 215 1.0 3.0 0.00 0.00 0.00 15 1008.6
20260502004739 91 130 1.0 2.0 0.00 0.00 0.00 16 1008.6
20260502004235 91 158 2.0 4.0 0.00 0.00 0.00 15 1008.5
20260502003733 91 198 1.0 3.0 0.00 0.00 0.00 15 1008.6
20260502003230 91 213 1.0 3.0 0.00 0.00 0.00 15 1008.5
20260502002726 91 298 1.0 2.0 0.00 0.00 0.00 15 1008.6
20260502002224 92 11 2.0 6.0 0.00 0.00 0.00 15 1008.7
20260502001720 91 147 2.0 3.0 0.00 0.00 0.00 16 1008.6
20260502001219 91 213 2.0 4.0 0.00 0.00 0.00 16 1008.7
20260502000716 91 212 2.0 3.0 0.00 0.00 0.00 16 1008.7
20260502000214 92 267 1.0 4.0 0.00 0.00 0.00 16 1008.4
20260501235709 91 188 1.0 3.0 0.00 0.00 0.00 16 1008.8
20260501235205 92 251 2.0 7.0 0.00 0.00 0.00 16 1008.7
20260501234701 91 250 1.0 3.0 0.00 0.00 0.00 17 1008.9
20260501234159 91 167 2.0 4.0 0.00 0.00 0.00 17 1008.7
20260501233657 91 170 1.0 6.0 0.00 0.00 0.00 17 1008.9
20260501233154 91 203 2.0 3.0 0.00 0.00 0.00 17 1008.9
20260501232649 91 251 2.0 8.0 0.00 0.00 0.00 17 1009.0
20260501232147 91 261 2.0 6.0 0.00 0.00 0.00 18 1008.9
20260501231644 91 229 1.0 3.0 0.00 0.00 0.00 18 1008.9
20260501231142 91 173 4.0 8.0 0.00 0.00 0.00 17 1008.8
20260501230641 91 227 1.0 6.0 0.00 0.00 0.00 18 1009.0
20260501230138 91 239 2.0 3.0 0.00 0.00 0.00 18 1009.1
20260501225636 90 100 2.0 4.0 0.00 0.00 0.00 17 1009.1
20260501225132 90 11 2.0 4.0 0.00 0.00 0.00 18 1009.3
20260501224629 90 300 5.0 6.0 0.00 0.00 0.00 17 1009.2
20260501224126 90 207 1.0 3.0 0.00 0.00 0.00 19 1009.4
20260501223623 90 244 2.0 4.0 0.00 0.00 0.00 18 1009.3
20260501223120 91 228 2.0 3.0 0.00 0.00 0.00 17 1009.5
20260501222615 91 272 3.0 6.0 0.00 0.00 0.00 17 1009.6
20260501222113 91 333 2.0 4.0 0.00 0.00 0.00 18 1009.6
20260501221609 89 232 2.0 4.0 0.00 0.00 0.00 18 1009.6
20260501221107 90 17 4.0 6.0 0.00 0.00 0.00 17 1009.8
20260501220604 91 230 2.0 6.0 0.00 0.00 0.00 17 1009.9
20260501220101 91 135 2.0 4.0 0.00 0.00 0.00 18 1009.7
20260501215557 91 64 2.0 7.0 0.00 0.00 0.00 16 1010.0
20260501215053 90 197 2.0 7.0 0.00 0.00 0.00 18 1009.9
20260501214548 89 3 4.0 4.0 0.00 0.00 0.00 18 1009.9
20260501214044 89 258 4.0 6.0 0.00 0.00 0.00 19 1010.2
20260501213541 90 8 4.0 7.0 0.00 0.00 0.00 19 1010.2
20260501213037 89 197 1.0 3.0 0.00 0.00 0.00 19 1010.3
20260501212533 90 234 3.0 4.0 0.00 0.00 0.00 20 1010.3
20260501212031 90 314 1.0 8.0 0.00 0.00 0.00 20 1010.4
20260501211527 89 251 3.0 6.0 0.00 0.00 0.00 20 1010.5
20260501211026 89 194 3.0 4.0 0.00 0.00 0.00 20 1010.6
20260501210521 89 252 3.0 3.0 0.00 0.00 0.00 19 1010.4
20260501210018 89 256 3.0 4.0 0.00 0.00 0.00 20 1010.7
20260501205515 88 233 5.0 6.0 0.00 0.00 0.00 20 1010.5
20260501205013 89 28 2.0 6.0 0.00 0.00 0.00 21 1010.9
20260501204508 87 5 1.0 3.0 0.00 0.00 0.00 21 1010.9
20260501204005 88 298 2.0 3.0 0.00 0.00 0.00 20 1011.1
20260501203501 88 244 5.0 6.0 0.00 0.00 0.00 21 1010.9
20260501202959 89 265 4.0 4.0 0.00 0.00 0.00 20 1011.1
20260501202455 88 208 1.0 4.0 0.00 0.00 0.00 21 1011.2
20260501201952 88 289 1.0 3.0 0.00 0.00 0.00 21 1011.2
20260501201450 88 300 3.0 3.0 0.00 0.00 0.00 21 1011.3
20260501200946 87 221 2.0 7.0 0.00 0.00 0.00 21 1011.2
20260501200444 86 222 3.0 6.0 0.00 0.00 0.00 21 1011.2
20260501195941 86 230 3.0 6.0 0.00 0.00 0.00 22 1011.3
20260501195438 86 288 4.0 8.0 0.00 0.00 0.00 22 1011.4
20260501194933 86 228 3.0 6.0 0.00 0.00 0.00 23 1011.5
20260501194429 86 18 2.0 3.0 0.00 0.00 0.00 22 1011.5
20260501193925 87 178 1.0 6.0 0.00 0.00 0.00 23 1011.6
20260501193423 86 59 1.0 6.0 0.00 0.00 0.00 23 1011.6
20260501192921 87 311 2.0 3.0 0.00 0.00 0.00 22 1011.9
20260501192418 86 247 4.0 4.0 0.00 0.00 0.00 23 1011.9
20260501191915 86 199 2.0 4.0 0.00 0.00 0.00 23 1011.8
20260501191412 86 57 0.0 3.0 0.00 0.00 0.00 24 1012.1
20260501190909 85 227 1.0 3.0 0.00 0.00 0.00 24 1012.0
20260501190405 85 279 3.0 3.0 0.00 0.00 0.00 24 1012.1
20260501185900 84 133 1.0 1.0 0.00 0.00 0.00 26 1012.0
20260501185356 83 188 1.0 2.0 0.00 0.00 0.00 26 1012.1
20260501184852 84 196 2.0 4.0 0.00 0.00 0.00 25 1012.2
20260501184348 84 217 4.0 4.0 0.00 0.00 0.00 26 1012.4
20260501183843 84 196 1.0 2.0 0.00 0.00 0.00 25 1012.4
20260501183341 83 252 2.0 6.0 0.00 0.00 0.00 25 1012.5
20260501182837 82 188 1.0 3.0 0.00 0.00 0.00 26 1012.5
20260501182335 83 57 2.0 3.0 0.00 0.00 0.00 25 1012.7
20260501181831 83 231 1.0 3.0 0.00 0.00 0.00 26 1012.7
20260501181328 83 127 2.0 3.0 0.00 0.00 0.00 25 1012.9
20260501180826 82 82 1.0 2.0 0.00 0.00 0.00 25 1012.9
20260501180322 82 199 1.0 2.0 0.00 0.00 0.00 26 1013.0
20260501175819 81 57 1.0 3.0 0.00 0.00 0.00 27 1013.1
20260501175316 81 264 2.0 3.0 0.00 0.00 0.00 27 1013.0
20260501174813 81 30 2.0 2.0 0.00 0.00 0.00 26 1013.0
20260501174310 82 260 4.0 6.0 0.00 0.00 0.00 26 1013.1
20260501173808 81 281 3.0 4.0 0.00 0.00 0.00 27 1013.1
20260501173306 80 266 2.0 4.0 0.00 0.00 0.00 27 1013.0
20260501172800 81 351 3.0 7.0 0.00 0.00 0.00 28 1013.3
20260501172256 81 343 2.0 3.0 0.00 0.00 0.00 27 1013.3
20260501171751 80 123 1.0 2.0 0.00 0.00 0.00 28 1013.3
20260501171249 80 264 1.0 2.0 0.00 0.00 0.00 29 1013.3
20260501170745 80 206 2.0 3.0 0.00 0.00 0.00 29 1013.4
20260501170242 80 7 1.0 3.0 0.00 0.00 0.00 30 1013.3
20260501165740 80 217 2.0 4.0 0.00 0.00 0.00 28 1013.2
20260501165237 79 158 1.0 2.0 0.00 0.00 0.00 29 1013.2
20260501164735 79 202 2.0 4.0 0.00 0.00 0.00 30 1013.2
20260501164231 79 40 1.0 2.0 0.00 0.00 0.00 30 1013.2
20260501163728 78 45 2.0 2.0 0.00 0.00 0.00 31 1013.3
20260501163225 78 194 1.0 6.0 0.00 0.00 0.00 32 1013.4
20260501162721 78 266 3.0 3.0 0.00 0.00 0.00 32 1013.2
20260501162217 78 246 2.0 4.0 0.00 0.00 0.00 32 1013.2